Location: Krasnoyarskiy Pitomnik
(51.1333°N, 71.6167°E)
Time: 11:53:03
(UTC+00:00)

Landsat 5 - Pass Details

Date: 03 June 2022
Orbit: 528 x 649 km, 98.2° (Epoch: 02 July)

Event Time Altitude Azimuth Distance (km) Brightness Sun altitude
Rises 16:15:17 0° 359° (N) 2,929 7.9 -6.9°
Reaches altitude 10° 16:18:43 10° 330° (NNW) 2,037 7.9 -7.3°
Maximum altitude 16:20:30 12° 307° (NW) 1,891 7.5 -7.4°
Drops below altitude 10° 16:22:17 10° 283° (WNW) 2,048 7.1 -7.6°
Sets 16:25:47 0° 254° (WSW) 2,962 7.4 -8.0°
